Regional Weather Roundup
Issued by NWS

Home | Current Version | Previous Version | Text Only | Print | Product List | Glossary On
Versions: 1 2 3 4 5 6 7 8 9 10 11 12 13 14 15 16 17 18 19 20 21 22 23 24 25 26 27 28 29 30 31 32 33 34 35 36 37 38 39 40 41 42 43 44 45 46 47 48 49 50
000
ASUS44 KLUB 192301
RWRTX
WEST TEXAS WEATHER ROUNDUP
NATIONAL WEATHER SERVICE LUBBOCK TX
500 PM CST THU JAN 19 2017

NOTE: "FAIR" INDICATES FEW OR NO CLOUDS BELOW 12,000 FEET WITH NO
SIGNIFICANT WEATHER AND/OR OBSTRUCTIONS TO VISIBILITY.

TXZ004-006>008-010-012-014-016-OKZ002-200000-
TEXAS PANHANDLE/OKLAHOMA PANHANDLE

CITY           SKY/WX    TMP DP  RH WIND       PRES   REMARKS
AMARILLO       SUNNY     64  20  18 W8        29.54R
BORGER         CLEAR     59  31  34 NE6       29.54R
CANADIAN       CLEAR     47  37  68 NW9       29.56S
DALHART        SUNNY     65  17  15 N6        29.54R
DUMAS          SUNNY     60  20  21 NW5       29.53S
GUYMON         CLEAR     45  36  70 E8        29.55R
HEREFORD       SUNNY     64  26  23 NW7       29.56R
PAMPA          CLEAR     56  34  43 N7        29.55S
$$

TXZ026-029-035-045-048-200000-
SOUTHERN PANHANDLE/SOUTH PLAINS/ROLLING PLAINS

CITY           SKY/WX    TMP DP  RH WIND       PRES   REMARKS
CHILDRESS      CLEAR     65  34  31 W6        29.54R
SEMINOLE       SUNNY     60  28  29 W17G26    29.69S
LUBBOCK        PTSUNNY   60  33  36 W18G28    29.59R
PLAINVIEW      SUNNY     61  32  33 W12       29.57R
SNYDER         SUNNY     65  31  28 W18       29.63S
$$

TXZ052-054-060>062-072-078-127-140-154-169-200000-
PERMIAN BASIN/CONCHO VALLEY/BIG COUNTRY/EDWARDS PLATEAU

CITY           SKY/WX    TMP DP  RH WIND       PRES   REMARKS
ABILENE        SUNNY     67  37  33 SW15      29.62S
BIG SPRING     CLOUDY    64  33  31 SW18G31   29.69S
BROWNWOOD      SUNNY     70  37  30 SW15G28   29.65S
JUNCTION       CLOUDY    70  39  32 W13G21    29.71S
MIDLAND        SUNNY     64  27  24 SW22G35   29.70R
ODESSA         SUNNY     62  27  26 W24G32    29.70S
SAN ANGELO     SUNNY     71  33  24 W20G26    29.67S
SONORA         SUNNY     72  30  21 W14       29.76S
SWEETWATER     SUNNY     65  36  33 SW14      29.66R
WINK           PTSUNNY   62  29  28 W22G39    29.71R
$$

TXZ055-058-074-075-080-082-200000-
FAR WEST/SOUTHWEST MOUNTAINS/TRANS PECOS

CITY           SKY/WX    TMP DP  RH WIND       PRES   REMARKS
ALPINE         CLOUDY    61  23  24 W18G24    29.89S
DRYDEN           N/A     72  27  18 SW24G36   29.72F
EL PASO        CLOUDY    54  27  35 W12       29.86S
FORT STOCKTON  SUNNY     63  26  24 W18G26    29.77R
MARFA          CLOUDY    58  20  22 W29G35    29.87S
PECOS          SUNNY     64  28  25 SW26G37   29.73F
$$

TXZ014-016-019-021>030-083-200000
TEXAS TECH WEST TEXAS MESONET/TEXAS PANHANDLE/NORTHERN SOUTH PLAINS

CITY           SKY/WX    TMP DP  RH WIND       PRES   REMARKS
ABERNATHY 5ENE   N/A     62  30  30 W21       29.59R
AMARILLO 9NNE    N/A     63  25  23 NW3       29.53R
AMARILLO 7SSE    N/A     64  23  21 W8        29.55S
AMHERST 1NE      N/A     60  29  31 W24G33    29.59R
BOOTLEG 11WNW    N/A     61  23  23 SW13      29.59S
CANADIAN 6E      N/A     48  35  61 NW10      29.54R
CAPROCK CYN SP   N/A     65  31  27 SW12      29.55S
CHILDRESS 2NNE   N/A     65  30  27 W7        29.53S
CLARENDON 2WSW   N/A     62  25  23 NW8       29.54S
CLAUDE 12SW      N/A     64  25  22 W9        29.54S
DIMMITT 2NE      N/A     60  31  33 SW17      29.56R
FLOYDADA 2NNE    N/A     63  30  29 SW16      29.57R
FRIONA 2NE       N/A     61  27  27 SW15      29.57S
GOODLETT 3W      N/A     67  34  29 W9        29.52S
HART 3N          N/A     60  34  38 SW15      29.56S
HEREFORD 2NW     N/A     63  28  26 W8        29.55S
MCLEAN 1E        N/A     58  29  32 NW8       29.53S
MEMPHIS 1NE      N/A     64  29  26 NW8       29.53R
MULESHOE 2SSW    N/A     61  27  27 W25G35    29.60R
PALO DURO SP     N/A     65  24  20 W9        29.55S
PAMPA 2E         N/A     55  32  41 N9        29.54S
PLAINVIEW 1S     N/A     63  31  30 W12       29.57R
SILVERTON 7ESE   N/A     63  31  30 W10       29.56R
TULIA 2ENE       N/A     62  34  34 SW12      29.56R
TURKEY 2WSW      N/A     65  36  33 SW13      29.54R
UMBARGER 3NNE    N/A     61  31  32 W8        29.56R
$$

TXZ033>036-039>041-045>048-200000
TEXAS TECH WEST TEXAS MESONET/SOUTH PLAINS

CITY           SKY/WX    TMP DP  RH WIND       PRES   REMARKS
AIKEN 3WSW       N/A     63  35  35 W13       29.59R
ANDREWS 2NE      N/A     64  21  19 W20G29    29.68F
ANTON 6SSW       N/A     59  34  39 SW22      29.61R
BROWNFIELD 2S    N/A     62  27  26 W21       29.64R
DENVR CTY 7WNW   N/A     59  28  30 SW21      29.66S
GAIL 2ESE        N/A     68  28  22 W18       29.63R
LAMESA 2SE       N/A     63  32  30 W18       29.65S
LEVELLAND 4S     N/A     61  26  26 W23       29.62R
LUBBOCK 3WNW     N/A     61  30  31 W20G30    29.61R
MORTON 1ENE      N/A     60  28  29 W23       29.61S
ODONNELL 1N      N/A     63  31  29 SW21      29.64R
PLAINS 3N        N/A     60  26  27 W21       29.65S
RALLS 1SE        N/A     63  32  32 W18       29.60R
REESE CENTER     N/A     58  30  34 W18       29.61R
SEAGRAVES 1SW    N/A     61  28  28 SW22      29.65S
SEMINOLE 2NNE    N/A     61  27  26 W17       29.67S
SLATON 2NE       N/A     60  33  37 W14       29.61R
SNYDER 3E        N/A     65  31  28 W16       29.62R
SUNDOWN 8SW      N/A     60  22  22 W25       29.62F
TAHOKA 3NNE      N/A     64  29  27 W18       29.62R
WOLFFORTH 6SSW   N/A     61  32  32 W18       29.63R
$$

TXZ031-032-036>038-042>044-200000-
TEXAS TECH WEST TEXAS MESONET/ROLLING PLAINS

CITY           SKY/WX    TMP DP  RH WIND       PRES   REMARKS
ASPERMONT 3NE    N/A     68  31  25 W20G29    29.58S
FLUVANNA 3WNW    N/A     62  32  32 SW20      29.62R
GRAHAM 5SSW      N/A     62  31  31 W18G29    29.62R
GUTHRIE 10WSW    N/A     68  33  27 W16       29.56S
HASKELL 1NW      N/A     66  36  32 SW15      29.58R
JAYTON 1SSE      N/A     68  31  25 SW17      29.58S
KNOX CITY 3NW    N/A     68  34  28 SW17      29.57S
LK A HENRY 1NW   N/A     65  30  26 W14       29.60R
NORTHFIELD 1S    N/A     69  32  25 NW3       29.53S
PADUCAH 10SW     N/A     67  34  29 W15       29.55R
POST 1NE         N/A     64  32  30 W16       29.60R
RRING SPRGS 3N   N/A     65  33  30 W15       29.56S
SEYMOUR 3NW      N/A     66  40  38 SW15      29.55S
SPUR 1W          N/A     66  31  27 W17       29.57S
WEINERT 2NNE     N/A     67  38  34 W15       29.57S
WHITE RVR 6NE    N/A     64  32  29 SW20      29.58S
$$

TXZ052-054-060>062-072-078-127-140-154-169-200000-
TEXAS TECH WEST TEXAS MESONET/PERMIAN BASIN/
CONCHO VALLEY/BIG COUNTRY/EDWARDS PLATEAU

CITY           SKY/WX    TMP DP  RH WIND       PRES   REMARKS
COYANOSA 2N      N/A     65  27  23 W20       29.75S
JUNCTION 1SSW    N/A     70  40  34 SW13      29.72F
MERTZON 3NNE     N/A     69  32  25 W16       29.71R
SAN ANGELO 7NW   N/A     69  32  25 W15       29.67S
STRLNG CT 4WSW   N/A     67  32  27 SW18      29.68S
ST LAWRNCE 5SW   N/A     64  33  32 W28       29.69S
SWEETWATR 11SW   N/A     66  35  32 W21       29.65R
WALL 1E          N/A     68  35  30 CALM      29.69S
$$

TXZ055-058-074-075-080-082-200000-
TEXAS TECH WEST TEXAS MESONET/FAR WEST/SOUTHWEST MOUNTAINS/TRANS PECOS

CITY           SKY/WX    TMP DP  RH WIND       PRES   REMARKS
PRSMN GAP BBNP   N/A     70  24  17 W17       29.80R
GUADLPE MTN NP   N/A     49  24  37 W29G39    29.77R
$$




USA.gov is the U.S. government's official web portal to all federal, state and local government web resources and services.